Regional Weather Roundup
Issued by NWS

Home | Current Version | Previous Version | Graphics & Text | Print | Product List | Glossary On
Versions: 1 2 3 4 5 6 7 8 9 10 11 12 13 14 15 16 17 18 19 20 21 22 23 24 25 26 27 28 29 30 31 32 33 34 35 36 37 38 39 40 41 42 43 44 45 46 47 48 49 50
558
ASUS44 KMEG 171510
RWRTN
TENNESSEE HOURLY STATE WEATHER ROUNDUP
NATIONAL WEATHER SERVICE MEMPHIS TN
1000 AM CDT THU AUG 17 2017

TNZ002-004-019-021-049-052-054-088>092-171600-
WEST TENNESSEE

CITY           SKY/WX    TMP DP  RH WIND       PRES   REMARKS
MEMPHIS INTL   CLOUDY    83  77  82 SW10      30.01F HX  92
NWS MEMPHIS      N/A     81 N/A N/A MISG        N/A
JACKSON        CLOUDY    79  77  94 SW9       30.02S
DYERSBURG      CLOUDY    79  75  87 SW8G17    30.00S
COVINGTON      PTSUNNY   79  77  94 SW7       30.00F
UNION CITY     CLOUDY    81  77  89 SW8G17    29.97S
PARIS          CLOUDY    77  75  94 SW12      29.99S
LEXINGTON      CLOUDY    77  75  94 SW13      30.03S
SELMER         CLOUDY    79  75  89 SW7       30.05S
SAVANNAH       CLOUDY    79  75  89 SW8G16    30.05S
$$

TNZ008-025-027-028-033-062-065-066-171600-
NORTH MIDDLE TENNESSEE

CITY           SKY/WX    TMP DP  RH WIND       PRES   REMARKS
NASHVILLE      MOSUNNY   84  73  69 SW7       30.04R HX  90
PORTLAND       SUNNY     84  73  70 S9        30.01S HX  91
CLARKSVILLE    CLOUDY    80  73  79 SW12      30.01R
SMYRNA         MOSUNNY   84  75  74 SW12      30.05R HX  92
COOKEVILLE     PTSUNNY   82  73  74 SW7       30.06S
GALLATIN       MOSUNNY   84  73  70 SW6G12    30.05R HX  91
CROSSVILLE     PTSUNNY   79  71  76 W12       30.12F
$$

TNZ061-075-076-078-094-096-097-171600-
SOUTH MIDDLE TENNESSEE

CITY           SKY/WX    TMP DP  RH WIND       PRES   REMARKS
FAYETTEVILLE   PTSUNNY   81  73  78 SW8G15    30.09S
TULLAHOMA      CLOUDY    79  72  78 SW14      30.10S
WINCHESTER     CLOUDY    81  72  74 W5        30.10S
MCMINNVILLE    MOSUNNY   82  75  78 SW9       30.08S
COLUMBIA       CLOUDY    81  77  89 SW10      30.04R
SHELBYVILLE    PTSUNNY   81  73  78 S12       30.07S
$$

TNZ017-018-042-046-047-171600-
NORTHEAST TENNESSEE

CITY           SKY/WX    TMP DP  RH WIND       PRES   REMARKS
TRI CITIES     PTSUNNY   78  73  84 CALM      30.11S
ELIZABETHTON   CLOUDY    79  70  73 CALM      30.12S
$$

TNZ012-013-036-069-073-074-171600-
CENTRAL EAST TENNESSEE

CITY           SKY/WX    TMP DP  RH WIND       PRES   REMARKS
KNOXVILLE      CLOUDY    81  74  79 S13       30.07F
OAK RIDGE      MOSUNNY   81  73  76 VRB5      30.08F
DOWNTOWN KNOXV CLOUDY    81  75  83 W6        30.06F
GATLINBURG     PTSUNNY   79  72  78 SW9       30.08F
MORRISTOWN     CLOUDY    79  73  83 W9        30.09S
$$

TNZ083-085-099-171600-
SOUTHEAST TENNESSEE

CITY           SKY/WX    TMP DP  RH WIND       PRES   REMARKS
CHATTANOOGA    MOSUNNY   85  72  65 SW6       30.08S HX  91
DAYTON         SUNNY     84  75  74 SW6       30.06F HX  92
$$

SKY/WX REPORTED AS FAIR MEANS FEW OR NO CLOUDS BELOW
12 THOUSAND FEET.





USA.gov is the U.S. government's official web portal to all federal, state and local government web resources and services.